Probability
1 1 0 0 0 0 0 0 0 0 0 0 0 1 1 1 1 2 3 3 3 3 3 4 6 9 10 10 9 7 5 2 1 0 0 0 0 0 0 1 2 2 2 3 3 2 1 1 2
1 0 0 0 0 0 0 0 0 0 0 0 0 1 3 3 2 2 3 3 3 3 4 4 6 8 10 10 9 7 6 4 2 0 0 0 1 1 0 0 1 1 1 2 2 1 0 1 2
0 0 0 0 0 0 0 0 0 0 0 0 0 1 2 3 2 2 2 3 3 4 4 5 6 8 9 9 8 7 6 5 2 1 0 1 2 2 1 1 0 0 1 1 1 0 0 0 1
0 1 1 0 0 0 0 0 0 0 0 0 0 1 1 1 1 0 1 2 3 3 4 5 7 8 9 9 8 7 6 4 2 1 1 1 3 3 2 1 1 0 0 1 1 0 0 0 0
1 2 2 1 0 0 0 0 0 0 0 0 1 2 2 1 0 0 0 1 2 2 3 4 5 7 9 10 10 8 6 4 3 2 2 1 2 2 2 1 1 0 0 0 0 0 0 0 0
2 2 2 1 0 0 0 0 0 0 0 0 2 3 2 1 0 0 0 0 0 1 1 2 3 5 7 10 10 7 5 4 3 3 3 1 1 1 1 1 0 0 0 0 0 0 0 0 0
1 1 1 0 0 0 0 0 0 0 0 0 1 3 2 1 0 0 0 0 0 0 0 0 1 2 3 6 7 5 4 4 4 4 3 1 0 1 1 1 0 0 0 0 0 0 0 0 0
0 0 0 0 0 0 0 0 0 0 0 0 1 2 2 1 0 0 0 0 0 0 0 0 0 0 1 3 4 4 3 4 4 4 2 1 0 0 0 0 0 0 0 0 0 0 0 0 0
0 0 0 0 0 0 0 0 0 0 1 1 1 2 2 1 0 0 0 0 0 0 0 0 0 0 1 2 2 2 2 2 2 1 0 0 0 0 0 0 0 0 0 0 0 0 0 0 0
0 0 0 0 0 0 0 0 0 1 2 2 3 2 1 0 0 0 0 0 0 0 0 0 0 0 0 1 1 1 1 0 0 0 0 0 0 0 0 0 0 0 0 0 0 0 0 0 0
0 0 0 0 0 0 0 0 0 1 2 2 3 2 1 0 0 0 0 0 0 0 0 0 0 0 0 0 0 0 0 0 0 0 0 0 0 0 0 0 0 0 0 0 0 0 0 0 0
0 0 0 0 0 0 0 0 0 0 1 1 1 1 1 0 0 0 0 0 0 0 0 0 0 0 0 0 0 0 0 0 0 0 0 0 0 0 0 0 0 0 0 0 0 0 0 0 0
0 0 0 0 0 0 0 0 0 0 0 0 0 0 0 0 0 0 0 0 0 0 0 0 0 0 0 0 0 0 0 0 0 0 0 0 0 0 0 0 0 0 0 0 0 0 0 0 0
0 0 0 0 0 0 1 0 0 0 1 0 0 0 0 1 0 0 0 0 0 0 0 0 0 0 0 0 0 0 0 0 0 0 0 0 0 0 0 0 0 0 0 0 0 0 0 0 0
0 0 0 0 0 0 0 0 0 0 0 0 0 0 1 2 1 0 0 0 0 0 0 0 0 0 0 0 0 0 0 0 0 0 0 0 0 0 0 0 0 0 0 0 0 0 0 0 0
0 0 0 0 0 0 0 0 0 0 1 1 1 1 2 3 1 0 0 0 0 0 0 0 0 0 0 0 0 0 0 0 0 0 0 0 0 0 0 0 0 0 0 0 0 0 0 0 0
0 0 0 0 0 0 0 0 0 0 1 2 1 1 2 2 1 0 0 0 0 0 0 0 0 0 0 0 0 0 0 0 0 0 0 0 0 0 0 0 0 0 0 0 0 0 0 0 0
0 0 0 0 0 0 0 0 0 0 1 1 1 0 1 1 1 0 0 0 0 0 0 0 0 0 0 0 0 0 0 0 0 0 0 0 0 0 0 0 0 0 0 0 0 0 0 0 0
0 0 0 0 0 0 0 0 0 0 0 0 0 0 0 0 0 0 0 0 0 0 0 0 0 0 0 0 0 0 0 0 0 0 0 0 0 0 0 0 0 0 0 0 0 0 0 0 0
0 0 0 0 0 0 0 0 0 0 0 0 0 0 0 0 0 0 0 0 0 0 0 0 0 0 0 0 0 0 0 0 0 0 0 0 0 0 0 0 0 0 0 0 0 0 0 0 0
0 0 0 0 0 0 0 0 0 0 0 0 0 0 0 0 0 0 0 0 0 0 1 1 0 0 0 0 0 0 0 0 0 0 0 0 0 0 0 0 0 0 0 0 0 0 0 0 0
0 0 0 0 0 0 0 0 0 0 0 0 0 0 0 0 0 0 0 0 0 0 0 1 1 1 0 0 0 0 0 0 0 0 0 0 0 0 0 0 0 0 0 0 0 0 0 0 0
0 0 0 0 0 0 0 0 0 0 0 0 0 0 0 0 0 0 0 0 0 0 0 0 1 1 0 0 0 0 0 0 0 0 0 0 0 0 0 0 0 0 0 0 0 0 0 0 0
0 0 0 0 0 0 0 0 0 0 0 0 0 0 0 0 0 0 0 0 0 0 0 0 0 0 0 0 0 0 0 0 0 0 0 0 0 0 0 0 0 0 0 0 0 0 0 0 0
0 0 0 0 0 0 0 0 0 0 0 0 0 0 0 0 0 0 0 0 0 0 0 0 0 0 0 0 0 0 0 0 0 0 0 0 0 0 0 0 0 0 0 0 0 0 0 0 0
0 0 0 0 0 0 0 0 0 0 0 0 0 0 0 0 0 0 0 0 0 0 0 0 0 0 0 0 0 0 0 0 0 0 0 0 0 0 0 0 0 0 0 0 0 0 0 0 0
0 0 0 0 0 0 0 0 0 0 0 0 0 0 0 0 0 0 0 0 0 0 0 0 0 0 0 0 0 0 0 0 0 0 0 0 0 0 0 0 0 0 0 0 0 0 0 0 0
0 0 0 0 0 0 0 0 0 0 0 0 0 0 0 0 0 0 0 0 0 0 0 0 0 0 0 0 0 0 0 0 0 0 0 0 0 0 0 0 0 0 0 0 0 0 0 0 0
0 0 0 0 0 0 0 0 0 0 0 0 0 0 0 0 0 0 0 0 0 0 0 0 0 0 0 0 0 0 0 0 0 0 0 0 0 0 0 0 0 0 0 0 0 0 0 0 0
0 0 0 0 0 0 0 0 0 0 0 0 0 0 0 0 0 0 0 0 0 0 0 0 0 0 0 0 0 0 0 0 0 0 0 0 0 0 0 0 0 0 0 0 0 0 0 0 0
Wind_Speed
9 5 2 4 6 4 2 4 2 1 1 1 3 6 8 5 3 4 1 2 4 5 3 4 6 8 8 9 10 9 10 10 11 11 12 12 12 12 12 12 12 12 13 12 12 13 13 13 12
4 3 4 5 5 1 4 4 3 2 3 3 4 5 6 4 3 5 2 2 6 5 4 4 6 8 8 9 10 10 9 10 11 11 11 11 11 12 12 12 12 13 13 13 12 12 12 12 11
4 1 4 4 3 6 5 3 3 1 2 3 4 5 5 3 3 2 1 4 6 5 4 4 7 8 8 9 9 10 9 9 10 11 11 11 11 11 12 12 12 12 12 12 12 12 11 11 11
2 4 4 3 4 5 5 3 3 3 2 4 5 5 3 2 2 2 4 6 7 5 4 4 7 8 8 8 9 10 10 9 10 10 11 11 11 11 11 11 11 11 11 11 11 11 10 10 10
3 3 2 1 4 3 3 3 2 2 2 2 4 5 3 2 4 6 6 7 7 5 4 4 7 7 7 8 8 9 10 9 10 10 11 11 11 11 10 10 11 11 11 10 10 10 10 10 9
3 3 3 5 5 3 2 2 2 2 2 2 4 5 2 1 4 5 6 7 6 6 5 5 7 7 7 7 8 8 9 9 9 10 10 10 10 10 10 10 10 10 10 10 10 10 9 9 9
3 3 4 5 4 3 3 0 2 2 2 1 3 6 3 1 3 6 6 7 7 6 5 4 4 5 6 7 7 8 9 9 9 9 9 9 9 9 9 9 9 9 9 9 9 9 9 9 9
4 3 2 4 4 5 2 0 1 2 2 1 3 6 5 4 5 6 7 7 7 6 5 4 4 4 4 4 6 8 9 9 9 9 9 9 8 8 8 8 8 8 8 8 8 8 9 9 9
3 2 3 4 4 3 1 2 1 2 4 3 3 2 4 8 8 7 6 5 5 5 4 4 4 4 4 3 5 6 8 9 8 7 9 7 4 4 4 6 7 8 8 8 8 8 8 8 8
3 4 5 2 2 2 1 2 2 3 2 2 3 3 6 9 8 8 6 5 4 3 3 3 4 3 3 3 3 3 3 4 4 4 4 3 3 3 4 6 7 8 7 7 7 8 7 6 3
3 5 4 2 1 0 0 0 0 4 2 3 5 6 7 7 7 7 6 5 5 4 3 2 3 3 3 2 2 2 2 2 3 4 4 3 3 3 3 2 3 4 5 3 4 4 3 3 2
2 2 3 2 1 1 1 1 1 2 4 3 7 10 8 8 7 7 7 6 5 4 3 2 2 3 2 2 2 2 2 2 2 2 3 3 2 2 2 2 2 2 2 2 2 2 3 3 3
2 2 1 1 1 1 1 1 2 2 2 3 6 7 8 8 7 5 5 5 5 4 3 2 2 3 2 3 2 2 2 1 2 2 2 3 2 2 2 1 2 2 2 2 2 2 3 3 3
2 1 2 2 2 1 2 1 1 4 2 4 6 7 7 8 7 6 5 5 5 5 4 3 3 3 3 2 2 2 2 1 2 1 1 2 2 2 1 2 1 1 1 1 1 2 2 2 2
1 1 3 3 2 2 2 3 5 5 4 4 5 6 6 6 7 7 7 6 6 5 4 4 4 3 3 3 2 2 2 2 2 1 1 2 2 2 2 1 1 1 1 2 2 2 2 2 2
1 1 2 4 3 3 4 6 6 4 6 6 6 6 6 5 6 6 7 6 6 5 5 4 3 3 3 3 2 2 2 2 1 1 1 2 2 2 2 2 1 1 1 2 2 2 2 2 2
1 1 3 4 2 2 4 6 4 3 5 6 6 6 6 5 5 5 6 6 6 6 6 4 4 4 3 3 2 2 2 2 1 1 1 1 2 2 2 1 1 1 2 2 2 2 1 1 2
4 3 3 4 2 1 3 6 5 3 5 6 5 5 5 6 6 5 6 6 6 6 6 5 4 4 3 3 2 2 2 2 1 1 1 1 1 2 2 2 2 2 2 2 1 2 2 1 1
2 2 3 4 2 1 4 7 7 5 5 6 6 6 6 6 4 4 5 6 6 5 5 5 4 4 3 3 2 2 1 1 1 1 1 1 1 2 2 2 1 1 1 1 2 2 2 2 2
2 2 3 3 2 1 3 8 7 6 7 8 8 8 8 6 4 5 5 5 6 6 6 5 5 4 4 3 2 2 2 1 1 1 1 1 1 1 1 2 1 1 1 2 2 2 1 1 2
2 4 4 3 4 3 3 6 5 4 4 5 6 7 7 9 8 7 6 5 5 6 6 5 5 5 4 3 2 2 2 2 1 0 0 1 1 1 1 2 2 1 1 1 1 1 2 1 1
4 3 3 2 1 3 1 5 7 4 4 5 5 5 6 7 7 7 7 6 6 6 5 5 5 5 4 4 4 4 3 3 2 2 1 0 1 1 1 1 2 1 1 1 0 1 1 2 1
3 1 1 1 1 2 2 3 9 3 5 6 5 5 5 6 7 8 8 7 6 5 4 4 4 4 4 4 5 5 3 2 1 1 2 1 1 1 1 1 1 1 1 1 0 0 0 1 1
2 2 3 3 2 4 5 5 8 4 6 4 4 4 3 4 5 5 5 5 4 3 3 3 4 3 4 4 4 5 4 3 3 3 3 2 1 1 1 1 1 1 1 1 1 1 1 1 1
2 4 2 3 1 6 3 4 9 6 5 5 5 4 2 3 3 4 4 4 4 4 3 3 4 4 4 4 4 4 4 5 5 4 4 3 2 2 2 2 2 2 2 2 1 1 1 1 2
4 6 6 5 5 4 2 6 8 5 3 1 1 1 1 2 2 3 4 4 3 4 4 4 4 4 4 4 4 3 4 3 3 3 3 3 3 3 3 2 2 2 1 1 1 1 1 1 1
4 4 4 4 1 2 5 5 6 3 2 2 1 1 1 1 2 3 3 3 3 4 4 4 4 4 4 4 4 3 3 3 3 3 2 2 2 2 2 2 2 2 2 2 1 1 2 1 2
2 4 4 4 3 4 4 4 5 4 3 1 1 1 2 1 1 1 2 2 2 3 2 3 3 4 4 4 4 3 3 3 3 2 2 2 2 2 2 2 2 2 2 2 2 1 1 1 2
3 2 3 3 3 4 4 7 5 5 4 4 4 3 2 2 2 2 2 2 2 2 1 2 2 2 2 2 2 2 2 2 2 2 2 2 2 2 2 2 2 2 2 2 2 2 2 2 2
3 4 6 4 4 4 3 8 4 4 3 3 2 2 2 2 2 2 2 2 1 1 1 2 2 2 2 2 2 2 2 2 2 2 2 2 2 2 3 2 3 3 3 3 3 3 3 3 3
Wind_Direction
329 332 43 55 57 57 237 251 228 215 70 31 72 89 97 90 112 140 140 100 113 122 115 111 107 106 103 103 99 96 97 96 97 97 95 92 90 88 86 83 82 80 81 82 85 84 84 83 80
328 346 52 62 95 148 257 247 214 204 163 144 70 78 78 72 66 99 86 97 115 114 104 106 98 104 105 104 104 99 99 99 98 97 95 93 91 89 87 86 82 79 77 78 82 82 82 81 78
327 47 79 83 140 187 215 222 185 134 109 110 77 58 84 95 94 109 118 112 106 97 88 99 95 103 105 103 105 105 101 100 101 99 97 94 92 91 88 87 84 82 78 77 79 80 80 78 76
32 47 63 97 203 218 207 209 176 137 67 63 101 74 65 42 127 130 110 102 102 92 84 97 97 100 103 103 105 107 104 104 103 101 100 97 94 92 87 87 86 84 81 79 78 78 77 75 72
63 81 91 203 229 241 229 226 175 138 125 78 102 101 77 9 90 105 102 100 106 93 81 90 89 96 100 105 107 109 106 105 105 103 100 98 96 93 90 88 86 85 83 80 77 76 78 75 70
60 83 137 217 228 236 256 243 118 105 108 80 97 109 111 84 104 110 103 99 102 98 82 77 79 84 90 98 105 112 111 108 106 104 102 99 98 96 92 89 88 87 84 80 76 73 74 74 68
115 121 192 210 217 232 243 279 119 125 99 101 124 115 133 142 125 118 106 98 91 84 77 68 71 73 75 83 95 102 105 107 103 101 99 97 97 97 94 90 88 89 87 82 78 74 71 71 67
135 122 216 223 211 229 244 138 94 111 125 63 102 134 170 185 140 113 99 92 89 78 71 62 55 59 64 75 87 96 96 97 93 90 87 86 87 90 88 84 83 85 86 83 79 74 69 64 60
105 107 224 228 208 231 203 135 22 77 93 57 48 126 153 141 132 111 96 83 84 79 69 68 59 53 56 71 76 85 90 87 85 84 82 78 68 67 74 73 77 78 81 80 75 72 67 61 53
114 182 217 232 210 202 199 146 163 102 84 73 53 54 111 130 133 128 126 122 113 100 80 75 73 64 59 70 73 73 75 76 74 78 82 76 69 59 64 65 68 69 69 70 69 63 56 49 40
159 194 207 253 285 356 15 102 117 135 170 196 171 156 143 136 137 139 141 142 142 136 113 86 86 80 73 69 75 73 70 76 74 72 74 80 74 63 56 59 52 52 56 52 51 49 40 36 39
172 228 200 222 268 334 228 173 114 170 204 191 166 155 149 149 154 157 155 150 145 137 131 112 97 90 87 83 82 85 78 80 79 73 76 82 82 69 59 63 58 50 48 50 44 44 41 38 39
225 240 266 216 163 177 142 187 180 230 219 147 144 144 156 161 166 164 156 150 146 144 141 137 120 103 103 98 93 89 80 84 92 86 81 86 93 89 71 59 61 57 52 57 51 47 44 36 34
199 239 265 264 250 237 160 234 187 239 173 147 158 166 172 172 169 159 154 155 159 158 155 150 137 125 112 110 113 110 102 99 96 88 86 92 97 91 90 77 68 58 58 59 62 59 53 39 35
138 2 320 272 228 210 135 283 229 217 162 171 182 181 182 184 173 171 170 167 171 169 160 158 150 133 125 121 118 111 111 109 109 103 94 88 91 92 88 90 76 52 58 68 62 54 49 43 39
53 64 283 278 210 191 158 249 251 204 175 193 200 192 187 195 187 181 173 167 168 164 164 164 153 139 135 128 124 114 106 105 112 107 97 92 88 92 89 84 79 60 69 71 77 63 55 39 27
14 215 233 277 240 171 176 241 253 213 184 203 210 202 193 198 198 189 176 169 167 166 166 165 153 146 142 132 122 113 112 102 93 91 91 84 83 88 95 85 59 70 76 77 75 59 63 47 17
213 216 231 238 259 150 218 248 260 234 202 214 219 210 206 205 207 189 174 167 165 164 163 164 157 149 140 123 104 91 89 88 92 96 87 88 96 98 97 91 62 73 85 73 75 75 51 58 27
199 202 240 256 268 219 237 254 257 236 224 226 224 216 216 217 208 182 172 167 161 159 157 163 162 160 150 146 147 148 145 133 114 113 99 93 96 104 100 91 82 68 88 91 92 89 72 42 35
224 240 261 291 309 254 261 268 261 236 225 222 218 216 212 208 200 190 181 173 172 170 168 167 171 171 169 168 168 161 148 155 161 136 106 106 103 104 112 112 115 90 81 77 78 78 90 52 35
228 214 220 251 327 336 319 300 279 265 245 236 221 212 208 201 197 195 188 187 180 179 178 174 177 176 175 158 130 109 87 70 58 127 178 169 138 124 122 135 123 104 98 119 163 135 124 132 346
236 237 217 229 330 299 3 292 285 274 271 249 236 220 211 206 196 193 191 190 189 189 181 177 177 175 174 160 154 159 167 175 198 199 206 202 145 137 127 142 127 120 117 125 197 128 135 139 180
210 222 183 194 183 293 279 238 282 292 263 256 241 230 217 203 192 191 193 190 185 177 173 175 170 172 172 169 169 174 186 185 165 160 165 179 179 170 165 152 140 152 156 164 139 94 169 173 183
158 59 39 46 85 259 231 200 273 245 235 245 241 233 216 196 183 181 176 164 165 159 160 164 165 173 175 175 174 182 187 179 170 186 190 196 197 191 184 160 167 185 187 194 210 197 211 208 191
103 97 36 351 320 247 227 204 252 259 250 229 225 225 212 174 161 157 156 160 164 162 166 166 167 177 180 178 179 188 192 189 193 196 199 196 196 207 211 196 196 203 210 209 202 194 221 216 207
185 158 169 200 223 268 264 227 255 275 283 261 215 177 128 138 155 161 164 164 170 176 179 177 179 185 186 185 191 193 190 193 202 203 202 204 208 213 205 200 204 208 206 218 207 205 224 217 222
160 197 181 146 190 262 258 273 295 304 338 358 17 79 143 169 170 176 180 173 175 180 188 184 181 188 194 194 191 192 194 197 205 206 199 207 210 210 198 198 206 211 204 207 203 215 228 220 224
164 155 120 145 187 245 268 255 246 267 265 273 250 229 231 213 186 193 193 189 189 193 194 179 177 190 195 193 193 192 194 200 201 201 206 208 207 205 198 206 209 211 210 208 203 225 230 226 244
161 163 159 161 184 189 249 260 225 219 219 214 225 226 222 220 219 215 209 195 183 166 171 179 188 191 194 190 187 188 194 194 193 200 206 203 202 200 201 203 204 213 214 211 206 219 222 228 245
193 188 164 173 225 198 209 263 269 224 232 216 235 250 247 224 224 225 212 187 170 171 182 190 198 199 209 202 188 196 205 191 191 206 215 203 203 205 206 203 207 218 222 215 209 221 228 225 236